Location: ???????
(38.2057°N, 23.8371°E)
Time: 01:21:16
(UTC+00:00)

Daily predictions for brighter satellites

Satellite Brightness Start Highest point End
(mag) Time Altitude Azimuth Time Altitude Azimuth Time Altitude Azimuth
NPP 3.6 00:00:22 10° NNE 00:05:45 72° ESE 00:06:27 63° SSE
CZ-4C R/B 3.3 00:05:33 26° ESE 00:06:02 26° ESE 00:10:26 10° NE
GEOS 3 Rocket 4.1 00:07:39 45° W 00:07:39 45° W 00:11:38 10° NW
Cosmos 1656 4.0 00:06:54 49° SE 00:07:48 54° ESE 00:13:19 10° NNE
ATLAS CENTAUR R/B 4.3 00:05:47 10° N 00:08:37 25° NE 00:14:01 10° ESE
SL-08 ROCKET BODY 4.2 00:08:22 65° SW 00:09:07 73° W 00:14:59 10° N
Cosmos 468 Rocket 4.4 00:12:13 45° SE 00:12:58 49° ESE 00:17:54 10° NNE
COSMOS 2455 4.2 00:11:39 23° W 00:13:33 27° NW 00:18:37 10° N
Cosmos 2084 3.8 00:15:46 58° NW 00:15:46 58° NW 00:20:02 10° NNE
Cosmos 1709 Rocket 4.0 00:17:09 48° SSE 00:18:55 75° E 00:25:02 10° N
Cosmos 1386 Rocket 4.4 00:18:10 55° SW 00:19:11 63° W 00:25:15 10° N
SJ 16-02 2.9 00:15:33 10° N 00:19:35 33° ENE 00:22:22 17° ESE
Meteor 2-10 Rocket 4.0 00:17:33 10° N 00:22:45 55° ENE 00:24:55 32° SE
Cosmos 921 Rocket 4.2 00:23:34 30° NW 00:23:34 30° NW 00:26:56 10° N
SL-19 R/B 4.4 00:21:54 49° S 00:23:39 79° WSW 00:30:03 10° NNW
Cosmos 1626 Rocket 4.4 00:29:36 37° WNW 00:29:36 37° WNW 00:33:09 10° N
Cosmos 1980 Rocket 3.9 00:31:53 16° SE 00:34:53 25° ESE 00:39:21 10° NE
Cosmos 2219 3.2 00:30:57 10° NNW 00:36:39 78° ENE 00:40:26 22° SSE
STARLINK-1320 4.1 00:42:44 38° N 00:42:44 38° N 00:45:10 10° NE
STARLINK-1322 4.1 00:43:03 38° N 00:43:03 38° N 00:45:31 10° NE
STARLINK-1324 4.1 00:43:24 38° N 00:43:24 38° N 00:45:52 10° NE
STARLINK-1294 4.1 00:43:39 38° N 00:43:39 38° N 00:46:10 10° NE
STARLINK-1261 4.1 00:44:02 38° N 00:44:02 38° N 00:46:31 10° NE
UNK 4.2 00:44:00 43° W 00:44:00 43° W 00:48:11 10° NNW
STARLINK-1325 4.1 00:44:22 38° N 00:44:22 38° N 00:46:52 10° NE
FALCON 9 R/B 4.0 00:38:25 22° W 00:43:57 73° S 01:13:47 10° ESE
STARLINK-1338 3.7 00:44:16 51° NNW 00:44:16 51° NNW 00:47:29 10° NE
STARLINK-1333 4.1 00:44:40 38° N 00:44:40 38° N 00:47:11 10° NE
Cosmos 1328 3.9 00:43:45 60° SE 00:44:16 69° E 00:48:14 10° NNE
STARLINK-1334 4.1 00:44:59 38° N 00:44:59 38° N 00:47:31 10° NE
Nadezhda 1 Rocket 4.4 00:38:50 10° NNW 00:44:36 43° W 00:45:52 38° WSW
STARLINK-1326 4.1 00:45:20 38° NNW 00:45:20 38° NNW 00:47:51 10° NE
STARLINK-1323 4.1 00:45:39 38° NNW 00:45:39 38° NNW 00:48:11 10° NE
STARLINK-1349 4.1 00:45:58 38° NNW 00:45:58 38° NNW 00:48:31 10° NE
STARLINK-1336 4.1 00:46:20 37° NNW 00:46:20 37° NNW 00:48:53 10° NE
STARLINK-1331 4.1 00:46:37 37° NNW 00:46:37 37° NNW 00:49:11 10° NE
STARLINK-1344 4.1 00:46:57 37° NNW 00:46:57 37° NNW 00:49:32 10° NE
STARLINK-1343 4.1 00:47:17 37° NNW 00:47:17 37° NNW 00:49:52 10° NE
STARLINK-1346 4.1 00:47:35 37° NNW 00:47:35 37° NNW 00:50:15 10° NE
STARLINK-1328 4.1 00:47:57 37° NNW 00:47:57 37° NNW 00:50:34 10° NE
STARLINK-1354 4.1 00:48:15 37° NNW 00:48:15 37° NNW 00:50:52 10° NE
STARLINK-1371 3.8 00:48:06 48° NW 00:48:06 48° NW 00:51:29 10° NE
ERS-2 4.4 00:45:12 10° SE 00:48:10 24° ENE 00:51:08 10° NNE
STARLINK-1347 4.1 00:48:36 36° NNW 00:48:36 36° NNW 00:51:14 10° NE
STARLINK-1357 4.1 00:48:53 36° NNW 00:48:53 36° NNW 00:51:32 10° NE
STARLINK-1335 4.1 00:49:14 36° NNW 00:49:14 36° NNW 00:51:53 10° NE
STARLINK-1327 4.1 00:49:33 36° NNW 00:49:33 36° NNW 00:52:13 10° NE
STARLINK-1340 4.1 00:49:53 36° NNW 00:49:53 36° NNW 00:52:34 10° NNE
IRS-1C 4.3 00:44:23 10° NNE 00:49:43 66° ESE 00:52:08 32° S
STARLINK-1356 4.1 00:50:13 36° NNW 00:50:13 36° NNW 00:52:54 10° NNE
STARLINK-1341 3.8 00:50:03 46° NW 00:50:08 46° NW 00:53:31 10° NE
STARLINK-1345 4.1 00:50:33 35° NNW 00:50:33 35° NNW 00:53:14 10° NNE
STARLINK-1355 4.1 00:50:52 35° NNW 00:50:52 35° NNW 00:53:34 10° NNE
STARLINK-1321 4.1 00:51:10 35° NNW 00:51:10 35° NNW 00:53:53 10° NNE
STARLINK-1358 4.1 00:51:31 35° NNW 00:51:31 35° NNW 00:54:14 10° NNE
STARLINK-1332 4.1 00:51:49 35° NNW 00:51:49 35° NNW 00:54:34 10° NNE
STARLINK-1348 4.1 00:52:10 35° NNW 00:52:10 35° NNW 00:54:55 10° NNE
STARLINK-1374 3.9 00:51:59 44° NW 00:52:09 44° NW 00:55:32 10° NE
Cosmos 2297 Rocket 2.2 00:46:37 10° NNW 00:52:18 84° ENE 00:57:35 12° SSE
STARLINK-1330 4.1 00:52:29 34° NNW 00:52:29 34° NNW 00:55:14 10° NNE
AQUA 4.2 00:47:50 10° N 00:52:24 48° WNW 00:53:18 42° WSW
STARLINK-1363 4.1 00:52:48 34° NNW 00:52:48 34° NNW 00:55:34 10° NNE
STARLINK-1337 4.1 00:53:07 34° NNW 00:53:07 34° NNW 00:55:54 10° NNE
STARLINK-1342 4.1 00:53:27 34° NNW 00:53:27 34° NNW 00:56:14 10° NNE
STARLINK-1364 4.1 00:53:47 34° NNW 00:53:47 34° NNW 00:56:35 10° NNE
CZ-4B R/B 4.0 00:49:00 10° N 00:53:55 46° WNW 00:55:16 38° WSW
STARLINK-1376 4.1 00:54:07 33° NNW 00:54:07 33° NNW 00:56:55 10° NNE
STARLINK-1339 3.9 00:54:00 41° NW 00:54:15 42° NW 00:57:36 10° NE
STARLINK-1360 4.1 00:54:22 33° NNW 00:54:22 33° NNW 00:57:12 10° NNE
Cosmos 1812 Rocket 4.0 00:50:11 10° NNW 00:54:25 43° W 00:54:30 43° W
STARLINK-1361 4.2 00:54:48 33° NNW 00:54:48 33° NNW 00:57:37 10° NNE
Cosmos 540 Rocket 4.1 00:52:32 27° SSE 00:55:00 48° ESE 00:59:56 10° NNE
STARLINK-1367 4.2 00:55:02 33° NW 00:55:02 33° NW 00:57:56 10° NNE
STARLINK-1366 4.2 00:55:25 32° NW 00:55:25 32° NW 00:58:15 10° NNE
STARLINK-1377 4.0 00:56:00 39° NW 00:56:20 40° NW 00:59:41 10° NE
Cosmos 2278 4.4 00:54:13 25° SSE 00:57:11 48° ESE 01:02:36 10° NE
SL-16 R/B 3.0 00:56:02 36° SW 00:57:21 40° W 01:03:06 10° NNW
STARLINK-1353 4.0 00:57:56 37° NW 00:58:19 39° NW 01:01:37 10° NE
Cosmos 990 Rocket 4.0 00:54:43 10° NNW 01:00:00 81° ENE 01:04:44 13° SSE
USA 234 4.1 00:54:05 10° ENE 01:00:09 40° SE 01:03:45 22° S
STARLINK-1375 4.1 00:59:43 35° WNW 01:00:12 37° NW 01:03:29 10° NE
Cosmos 2074 Rocket 4.4 00:55:43 19° SSE 01:00:13 61° E 01:06:25 10° NNE
CBERS-1 4.1 00:55:21 10° N 01:00:24 61° WNW 01:02:06 39° SW
Cosmos 1825 Rocket 3.6 01:01:14 50° SW 01:02:02 60° W 01:06:19 10° N
STARLINK-1350 4.2 01:01:59 33° WNW 01:02:34 36° NW 01:05:50 10° NNE
STARLINK-1352 4.3 01:04:09 31° WNW 01:04:52 34° NW 01:08:07 10° NNE
Alouette 2 Rocket 3.8 00:59:53 10° NNW 01:05:40 65° W 01:07:10 39° SSW
NOSS 7 (E) 4.5 01:06:05 58° WSW 01:06:39 72° WNW 01:09:53 10° NNE
Cosmos 841 Rocket 3.6 01:04:22 30° S 01:06:57 70° ESE 01:12:11 10° NNE
STARLINK-1368 4.4 01:06:14 29° WNW 01:07:02 33° NW 01:10:16 10° NNE
BREEZE-M DEB (TANK) 3.5 01:05:39 36° SSW 01:07:26 67° SE 01:20:16 10° NE
Meteor 1-28 Rocket 4.5 01:03:57 10° SE 01:07:30 40° ENE 01:11:03 10° N
CZ-2D R/B 4.4 01:04:31 10° NNE 01:08:29 44° E 01:11:01 20° SSE
STARLINK-1369 4.5 01:08:12 27° WNW 01:09:05 32° NW 01:12:16 10° NNE
Cosmos 1455 2.5 01:05:46 10° NNW 01:09:21 44° W 01:09:23 44° W
BREEZE-M DEB (TANK) 3.9 01:09:29 17° NNW 01:09:49 18° NNW 01:11:36 10° NNE
ATLAS 3B R/B 3.5 01:05:51 10° NW 01:11:36 29° WSW 01:12:42 28° SW
Cosmos 2184 Rocket 4.1 01:07:06 19° S 01:11:38 73° E 01:17:48 10° N
COBE Rocket 4.5 01:08:09 10° SSE 01:12:55 58° ENE 01:17:51 10° N
IRS-1D 4.0 01:08:04 10° N 01:13:10 47° WNW 01:15:16 31° SW
GP-B 3.7 01:11:02 10° NNW 01:15:10 39° W 01:16:11 34° WSW
SL-08 R/B 3.2 01:15:14 17° SSE 01:18:57 86° WSW 01:23:38 10° NNW
Cosmos-2242 3.1 01:14:53 10° NNW 01:19:02 54° W 01:20:32 35° SSW
Cosmos 1400 Rocket 3.4 01:17:21 10° N 01:21:26 60° E 01:25:30 10° SSE
Cosmos 2181 Rocket 4.2 01:19:36 10° NNW 01:25:51 56° W 01:30:28 19° SSW
Cosmos 1763 Rocket 4.1 01:23:45 27° WSW 01:25:53 40° WNW 01:30:41 10° N
Cosmos 1697 Rocket 2.8 01:23:12 28° SW 01:26:10 61° WNW 01:31:48 10° NNE
Cosmos 1703 4.3 01:26:48 27° W 01:27:32 29° WNW 01:31:01 10° NNW
Cosmos 2227 Rocket 2.3 01:22:16 10° NNW 01:27:49 56° WSW 01:33:20 10° S
IRS-P3 4.5 01:22:52 10° N 01:28:00 50° WNW 01:30:49 25° SW
CZ-2D R/B 3.8 01:24:53 10° NNW 01:28:15 17° WNW 01:30:15 14° W
ADEOS II 2.7 01:26:30 10° N 01:31:25 42° WNW 01:34:07 24° SW
SL-16 R/B 4.3 01:28:05 10° SSE 01:32:14 21° E 01:36:23 10° NE
Resurs 1-4 Rocket 4.1 01:35:14 10° NNW 01:37:53 14° WNW 01:40:11 11° W
STARLINK-1231 4.4 01:33:55 10° NW 01:38:00 55° NE 01:42:04 10° ESE
STARLINK-1228 3.6 01:36:27 10° WNW 01:39:31 34° SW 01:42:34 10° SSE
STARLINK-1234 3.7 01:41:18 30° SSW 01:41:18 30° SSW 01:43:32 10° SSE
H-2A R/B 2.1 01:37:25 10° SSE 01:41:41 85° E 01:46:05 10° NNW
STARLINK-1212 3.0 01:39:05 10° WNW 01:42:06 48° SW 01:45:05 10° SSE
STARLINK-1105 3.0 01:39:34 10° WNW 01:42:33 47° SW 01:45:32 10° SSE
STARLINK-1232 4.2 01:38:53 10° NW 01:42:59 61° NE 01:47:05 10° ESE
STARLINK-1247 3.0 01:40:29 10° WNW 01:43:30 46° SW 01:46:29 10° SSE
Cosmos 2154 Rocket 4.1 01:37:17 10° S 01:43:35 83° E 01:49:53 10° N
ARIANE 5 R/B 2.8 01:38:42 10° N 01:43:36 51° WNW 01:46:54 20° SW
CZ-2C R/B 2.8 01:39:56 10° NNE 01:43:38 72° ESE 01:46:42 15° S
STARLINK-1227 3.0 01:40:57 10° WNW 01:43:56 45° SW 01:46:53 10° SSE
STARLINK-1226 3.1 01:41:48 10° WNW 01:44:48 44° SW 01:47:46 10° SSE
STARLINK-1215 3.1 01:42:46 10° WNW 01:45:44 43° SW 01:48:42 10° SSE
STARLINK-1217 3.2 01:44:32 10° WNW 01:47:29 41° SW 01:50:27 10° SSE
STARLINK-1208 4.0 01:43:49 10° NW 01:47:57 67° NE 01:52:04 10° ESE
STARLINK-1229 3.2 01:45:28 10° WNW 01:48:25 40° SW 01:51:22 10° SSE
STARLINK-1270 3.2 01:46:20 10° WNW 01:49:17 39° SW 01:52:13 10° SSE
Spot 4 Rocket 4.1 01:44:18 10° N 01:49:23 64° WNW 01:53:33 15° SSW
Meteor 1-27 4.1 01:44:39 10° N 01:50:14 81° W 01:55:47 10° S
STARLINK-1189 3.3 01:48:11 10° WNW 01:51:07 37° SW 01:54:01 10° SSE
SL-24 DEB 4.4 01:47:09 10° N 01:51:47 72° E 01:56:22 10° S
STARLINK-1188 3.3 01:49:05 10° WNW 01:51:59 36° SW 01:54:53 10° SSE
STARLINK-1235 3.8 01:49:56 10° WNW 01:52:36 26° SW 01:55:15 10° S
Cosmos 1898 Rocket 4.2 01:47:55 10° NW 01:52:39 33° W 01:57:05 11° SSW
STARLINK-1271 3.8 01:48:48 10° NW 01:52:57 74° NE 01:57:05 10° SE
STARLINK-1187 3.6 01:50:16 10° WNW 01:53:02 30° SW 01:55:49 10° SSE
Cosmos 2058 3.6 01:49:39 10° S 01:53:42 54° E 01:57:48 10° NNE
CZ-4C R/B 2.9 01:50:43 17° WSW 01:54:10 37° NW 01:59:31 10° NNE
STARLINK-1191 3.4 01:51:35 10° WNW 01:54:26 34° SW 01:57:16 10° SSE
Lacrosse 4 Rocket 1.7 01:50:33 10° NNW 01:54:51 73° ENE 01:59:02 10° SSE
STARLINK-1221 3.5 01:52:27 10° WNW 01:55:18 33° SW 01:58:08 10° SSE
STARLINK-1222 3.5 01:53:22 10° WNW 01:56:11 32° SW 01:59:00 10° SSE
STARLINK-1214 3.5 01:54:18 10° WNW 01:57:06 32° SW 01:59:53 10° SSE
IDEFIX/ARIANE 42P 2.6 01:51:50 10° N 01:57:07 79° WNW 02:02:22 10° SSW
Meteor 2-17 Rocket 4.5 01:51:29 11° SSW 01:57:18 67° W 02:03:25 10° N
SJ 16-02 2.8 01:54:45 10° NW 01:57:53 19° W 01:59:17 17° WSW
STARLINK-1154 3.7 01:53:47 10° NW 01:57:56 81° NE 02:02:04 10° SE
Cosmos 2285 Rocket 4.2 01:52:14 10° NNW 01:58:24 53° WSW 02:04:29 10° S
STARLINK-1197 3.6 01:58:45 10° NW 02:02:54 89° NE 02:07:03 10° SE
Cosmos 1937 Rocket 4.0 01:58:10 10° NW 02:02:58 38° WSW 02:07:47 10° SSW
STARLINK 1040 2.3 02:05:28 20° SW 02:07:04 84° NW 02:09:39 10° NE
STARLINK-26 4.1 02:04:36 13° SSW 02:07:22 40° SE 02:10:37 10° ENE
Meteor 2-2 Rocket 4.5 02:01:25 10° N 02:07:30 85° E 02:13:31 10° S
STARLINK-1198 3.5 02:03:42 10° NW 02:07:51 83° SW 02:11:59 10° SE
Cosmos 1842 Rocket 3.6 02:04:16 10° NNW 02:08:42 63° W 02:13:06 10° S
IRIDIUM 104 4.4 02:04:17 10° SSW 02:09:25 61° W 02:14:36 10° N
Cosmos 1408 3.9 02:07:13 10° SSE 02:10:43 42° E 02:14:14 10° NNE
STARLINK-1199 3.5 02:08:43 10° NW 02:12:52 75° SW 02:16:59 10° SE
Iridium 2 4.4 02:10:11 10° NNW 02:13:35 33° W 02:16:59 10° SSW
USA 129 3.0 02:14:08 10° NNW 02:15:03 13° WNW 02:15:07 13° WNW
STARLINK-1210 3.5 02:13:42 10° NW 02:17:49 67° SW 02:21:55 10° SE
Cosmos 1980 Rocket 2.8 02:13:41 12° SW 02:18:34 42° WNW 02:23:54 10° N
CZ-4B R/B 2.2 02:16:16 10° SSE 02:19:13 48° ENE 02:22:10 10° N
ERS-2 3.6 02:19:08 11° SW 02:21:39 19° W 02:24:19 10° NW
STARLINK-42 3.7 02:19:07 10° SSW 02:22:10 44° SE 02:25:15 10° ENE
Cosmos 1125 Rocket 4.2 02:17:21 10° N 02:22:31 60° ENE 02:27:38 10° SSE
CZ-2C R/B 3.1 02:17:39 10° NNE 02:22:45 62° E 02:27:52 10° S
STARLINK-1219 3.6 02:18:42 10° NW 02:22:47 60° SW 02:26:51 10° SE
STARLINK-43 3.7 02:19:29 11° WSW 02:22:52 55° NW 02:26:30 10° NE
Nadezhda 3 Rocket 4.1 02:17:10 10° NNW 02:23:19 59° W 02:29:30 10° S
Cosmos 1825 3.5 02:20:39 10° SSE 02:24:10 40° E 02:27:42 10° NNE
STARLINK-1211 3.7 02:23:41 10° WNW 02:27:44 54° SW 02:31:45 10° SSE
Cosmos 2341 Rocket 4.1 02:23:14 10° S 02:29:37 78° W 02:36:01 10° N
STARLINK-1245 3.8 02:28:42 10° WNW 02:32:42 48° SW 02:36:41 10° SSE
Cosmos 2297 Rocket 4.0 02:33:55 10° W 02:35:29 11° W 02:37:03 10° WSW
Cosmos 1076 Rocket 3.8 02:31:24 10° SSW 02:35:36 49° W 02:39:51 10° N
STARLINK-1316 4.0 02:32:42 10° SSW 02:35:37 37° SE 02:38:31 10° ENE
STARLINK-1257 3.9 02:33:34 10° SSW 02:36:29 38° SE 02:39:25 10° ENE
STARLINK-1256 3.9 02:34:31 10° SSW 02:37:26 39° SE 02:40:22 10° ENE
STARLINK-1233 3.9 02:33:43 10° WNW 02:37:39 43° SW 02:41:35 10° SSE
STARLINK-1213 3.9 02:35:21 10° SSW 02:38:17 40° SE 02:41:14 10° ENE
STARLINK-55 2.9 02:35:55 10° SW 02:39:07 87° SE 02:42:19 10° NE
STARLINK-1263 3.8 02:36:14 10° SSW 02:39:11 41° SE 02:42:08 10° ENE
USA 234 3.7 02:36:53 10° NE 02:43:14 56° NW 02:49:35 10° WSW
